User: anonymous   Login
Location: Holmes Observatory
(37.1039°N, 122.0513°W)
Time: 13:13:14
(UTC-08:00)
Language:

Cosmos 921 Rocket - Orbit

View from above orbital plane
View from above orbital plane
View from above satellite
View from above satellite

Ground track
Ground track

The orbit data is extracted from the following two-line orbital elements,

1 10096U 77055B   16041.82900712  .00000314  00000-0  35489-4 0  9992
2 10096  75.8353 154.0401 0042843  19.9932 340.2924 14.88416889 88993
Epoch (UTC): 10 February 2016 19:53:46
Eccentricity: 0.0042843
inclination: 75.8353°
perigee height: 573 km
apogee height: 633 km
right ascension of ascending node: 154.0401°
argument of perigee: 19.9932°
revolutions per day: 14.88416889
mean anomaly at epoch: 340.2924°
orbit number at epoch: 8899

The dashed part of the orbit path shows where the satellite is in the earth's shadow,  

DLR